Tracking 18840 objects as of 19-November-2017
HD Live streaming from Space Station
objects crossing your sky now

NOAA 4

Track NOAA 4 now!
10-day predictions
NOAA 4 is classified as:


NORAD ID: 7529
Int'l Code: 1974-089A
Perigee: 1,451.4 km
Apogee: 1,465.9 km
Inclination: 101.7 °
Period: 114.9 minutes
Semi major axis: 7829 km
RCS: 3.1879 m2 (large)
Launch date: November 15, 1974
Source: United States (US)
Launch site: AIR FORCE WESTERN TEST RANGE (AFWTR)
aabbcc
Your satellite tracking list
Your tracking list is empty




NASA's NSSDC Master Catalog

Two Line Element Set (TLE):
1 07529U 74089A   17323.61548990 -.00000049  00000-0 -32463-4 0  9996
2 07529 101.6642 289.4801 0009259  78.2913  47.3841 12.53116601967502
Source of the keplerian elements: AFSPC